Hourly Weather Roundup
Issued by NWS Central Illinois

Home | Current Version | Previous Version | Text Only | Print | Product List | Glossary On
Versions: 1 2 3 4 5 6 7 8 9 10 11 12 13 14 15 16 17 18 19 20 21 22 23 24 25 26 27 28 29 30 31 32 33 34 35 36 37 38 39 40 41 42 43 44 45 46 47 48 49 50
000
NZUS43 KILX 280910
HWRILX

AREA WEATHER ROUNDUP
NATIONAL WEATHER SERVICE, LINCOLN IL
300 AM CST SAT FEB 28 2015


CITY           SKY/WX    TMP DP  RH WIND       PRES   REMARKS
BLOOMINGTON    PTCLDY     4  -2  76 CALM      30.65S
CHAMPAIGN      MOCLDY     6  -1  73 NE7       30.65S WCI  -6
DECATUR        MOCLDY     4  -3  73 E3        30.65F
FLORA          CLOUDY    11   1  65 NE6       30.65F WCI   1
GALESBURG      PTCLDY    -5  -9  83 E3        30.63F
JACKSONVILLE   PTCLDY     6  -1  73 E3        30.64F
LACON          PTCLDY    -7 -11  82 CALM      30.67S
LAWRENCEVILLE  CLOUDY    12   2  64 NE8       30.67S WCI   0
LITCHFIELD     MOCLDY     9   0  65 E6        30.64S WCI  -1
$$


CITY           SKY/WX    TMP DP  RH WIND       PRES   REMARKS
LINCOLN        CLOUDY    10   4  78 CALM      30.69F
MACOMB         PTCLDY    -5  -9  84 CALM      30.66F
MATTOON        MOCLDY     6  -1  73 CALM      30.64F
MT CARMEL AP   CLOUDY    18   3  53 NE9       30.65F WCI   6
OLNEY-NOBLE AP MOCLDY    10   1  67 NE8       30.65F WCI  -1
PARIS          PTCLDY     2  -2  82 CALM      30.67S
PEORIA         CLOUDY     4  -2  76 CALM      30.66F
PONTIAC        PTCLDY    -4  -8  84 SE3       30.68S
RANTOUL        MOCLDY     8   1  72 E3        30.66S
ROBINSON       CLOUDY    10   3  73 N5        30.68F WCI   2
SPRINGFIELD    CLOUDY     7   0  73 E6        30.65F WCI  -3
TAYLORVILLE    MOCLDY     9   1  72 E6        30.65S WCI  -1
$$

...REGIONAL REPORTS...


CITY           SKY/WX    TMP DP  RH WIND       PRES   REMARKS
CHICAGO O`HARE PTCLDY    -4 -10  75 CALM      30.65F
KANKAKEE       PTCLDY    -2  -6  83 CALM      30.68F
MOLINE         PTCLDY   -17 -23  73 CALM      30.66F
MOUNT VERNON   CLOUDY    14   1  57 NE6       30.64S WCI   5
PITTSFIELD     PTCLDY    10   2  72 CALM      30.63F
QUINCY         CLOUDY     6  -4  63 E6        30.61F WCI  -4
ROCKFORD       MOCLDY   -13 -19  75 CALM      30.66F
$$


CITY           SKY/WX    TMP DP  RH WIND       PRES   REMARKS
BURLINGTON     PTCLDY    -2  -8  76 CALM      30.63F
CEDAR RAPIDS   MOCLDY   -11 -14  86 E6        30.59F WCI -25
DES MOINES     CLEAR      4  -4  69 SE7       30.56F WCI  -8
KIRKSVILLE     CLOUDY    10   2  69 E7        30.57F WCI  -1
OTTUMWA        PTCLDY    -3  -8  79 SE7       30.59F WCI -16
ST LOUIS       CLOUDY    15   2  56 E8        30.63F WCI   4
$$


CITY           SKY/WX    TMP DP  RH WIND       PRES   REMARKS
TERRE HAUTE    MOCLDY     7  -1  70 CALM      30.67S
EVANSVILLE     MOCLDY    19   7  59 NE7       30.63F WCI  10
INDIANAPOLIS   MOCLDY     7  -1  70 NE7       30.65S WCI  -5
LAFAYETTE      PTCLDY     1  -4  79 CALM      30.68F
MADISON        CLEAR     -3 -10  72 CALM      30.61S
MILWAUKEE      CLEAR      2  -8  63 SW6       30.64S WCI  -9
$$




USA.gov is the U.S. government's official web portal to all federal, state and local government web resources and services.